| time (UTC) | temp F | wind direction | speed knots | gust knots | rain 1hr in | rain 24hr in | rain mn in | humidity % | barometer mb |
| 20260504130539 | 62 | 120 | 1.7 | 1.7 | 0.00 | 0.00 | 0.00 | 66 | 1018.2 |
| 20260504110426 | 46 | 65 | 0.0 | 0.9 | 0.00 | 0.00 | 0.00 | 89 | 1017.5 |
| 20260504100349 | 46 | 336 | 0.9 | 0.9 | 0.00 | 0.00 | 0.00 | 89 | 1017.4 |
| 20260504081742 | 48 | 82 | 1.7 | 1.7 | 0.00 | 0.00 | 0.00 | 89 | 1017.2 |
| 20260504081238 | 48 | 40 | 0.0 | 0.0 | 0.00 | 0.00 | 0.00 | 89 | 1017.5 |
| 20260504080735 | 48 | 52 | 0.9 | 0.9 | 0.00 | 0.00 | 0.00 | 89 | 1017.4 |
| 20260504080232 | 48 | 40 | 0.0 | 0.0 | 0.00 | 0.00 | 0.00 | 89 | 1017.6 |
| 20260504070159 | 50 | 69 | 0.9 | 0.9 | 0.00 | 0.00 | 0.00 | 85 | 1018.0 |
| 20260504060120 | 50 | 34 | 0.0 | 0.0 | 0.00 | 0.00 | 0.00 | 87 | 1018.6 |
| 20260504050548 | 53 | 50 | 0.0 | 0.0 | 0.00 | 0.00 | 0.00 | 80 | 1018.4 |
| 20260504045541 | 53 | 21 | 0.0 | 0.9 | 0.00 | 0.00 | 0.00 | 81 | 1018.8 |
| 20260504045037 | 54 | 30 | 0.0 | 0.0 | 0.00 | 0.00 | 0.00 | 76 | 1018.7 |
| 20260504044535 | 54 | 53 | 0.0 | 0.0 | 0.00 | 0.00 | 0.00 | 75 | 1018.5 |
| 20260504044031 | 54 | 79 | 0.9 | 0.9 | 0.00 | 0.00 | 0.00 | 76 | 1018.8 |
| 20260504043528 | 53 | 37 | 0.0 | 0.0 | 0.00 | 0.00 | 0.00 | 78 | 1018.6 |
| 20260504043026 | 53 | 54 | 0.0 | 0.0 | 0.00 | 0.00 | 0.00 | 79 | 1018.7 |
| 20260504042522 | 54 | 92 | 0.9 | 0.9 | 0.00 | 0.00 | 0.00 | 79 | 1018.9 |
| 20260504042020 | 54 | 134 | 1.7 | 1.7 | 0.00 | 0.00 | 0.00 | 78 | 1018.6 |
| 20260504041515 | 54 | 54 | 0.0 | 0.0 | 0.00 | 0.00 | 0.00 | 76 | 1018.8 |
| 20260504041011 | 54 | 52 | 0.0 | 0.0 | 0.00 | 0.00 | 0.00 | 75 | 1019.1 |
| 20260504040509 | 54 | 15 | 0.9 | 0.9 | 0.00 | 0.00 | 0.00 | 77 | 1018.9 |
| 20260504040006 | 54 | 52 | 0.0 | 0.0 | 0.00 | 0.00 | 0.00 | 74 | 1018.9 |
| 20260504035503 | 54 | 44 | 0.0 | 0.0 | 0.00 | 0.00 | 0.00 | 75 | 1018.7 |
| 20260504034959 | 54 | 20 | 0.0 | 0.0 | 0.00 | 0.00 | 0.00 | 75 | 1018.9 |
| 20260504034457 | 54 | 53 | 0.0 | 0.0 | 0.00 | 0.00 | 0.00 | 77 | 1018.8 |
| 20260504033954 | 54 | 63 | 0.9 | 0.9 | 0.00 | 0.00 | 0.00 | 77 | 1019.0 |
| 20260504033451 | 54 | 50 | 0.0 | 0.0 | 0.00 | 0.00 | 0.00 | 77 | 1019.0 |
| 20260504032948 | 55 | 50 | 0.0 | 0.0 | 0.00 | 0.00 | 0.00 | 76 | 1018.9 |
| 20260504032445 | 55 | 47 | 0.0 | 0.0 | 0.00 | 0.00 | 0.00 | 75 | 1019.1 |
| 20260504031942 | 55 | 46 | 0.0 | 0.0 | 0.00 | 0.00 | 0.00 | 74 | 1019.1 |
| 20260504031439 | 56 | 46 | 0.0 | 0.0 | 0.00 | 0.00 | 0.00 | 71 | 1018.9 |
| 20260504030936 | 56 | 46 | 0.0 | 0.0 | 0.00 | 0.00 | 0.00 | 72 | 1018.7 |
| 20260504030433 | 56 | 49 | 0.9 | 0.9 | 0.00 | 0.00 | 0.00 | 70 | 1018.9 |
| 20260504025928 | 56 | 38 | 0.0 | 0.9 | 0.00 | 0.00 | 0.00 | 71 | 1018.9 |
| 20260504025426 | 57 | 357 | 0.9 | 0.9 | 0.00 | 0.00 | 0.00 | 72 | 1019.0 |
| 20260504024923 | 58 | 40 | 0.0 | 0.0 | 0.00 | 0.00 | 0.00 | 65 | 1018.9 |
| 20260504024420 | 58 | 59 | 0.9 | 0.9 | 0.00 | 0.00 | 0.00 | 64 | 1018.7 |
| 20260504023917 | 59 | 70 | 0.9 | 0.9 | 0.00 | 0.00 | 0.00 | 63 | 1018.6 |
| 20260504023413 | 59 | 46 | 0.0 | 0.9 | 0.00 | 0.00 | 0.00 | 62 | 1018.4 |
| 20260504022908 | 59 | 38 | 0.0 | 0.9 | 0.00 | 0.00 | 0.00 | 60 | 1018.6 |
| 20260504022405 | 59 | 48 | 0.0 | 0.0 | 0.00 | 0.00 | 0.00 | 62 | 1018.5 |
| 20260504021902 | 58 | 45 | 0.0 | 0.9 | 0.00 | 0.00 | 0.00 | 64 | 1018.5 |
| 20260504021359 | 59 | 66 | 0.0 | 0.9 | 0.00 | 0.00 | 0.00 | 65 | 1018.7 |
| 20260504020856 | 59 | 64 | 0.9 | 0.9 | 0.00 | 0.00 | 0.00 | 63 | 1018.8 |
| 20260504020353 | 59 | 47 | 0.0 | 0.0 | 0.00 | 0.00 | 0.00 | 64 | 1018.8 |
| 20260504015849 | 60 | 41 | 0.0 | 0.0 | 0.00 | 0.00 | 0.00 | 63 | 1018.5 |
| 20260504015345 | 62 | 42 | 0.0 | 0.9 | 0.00 | 0.00 | 0.00 | 58 | 1018.5 |
| 20260504014841 | 61 | 42 | 0.0 | 0.9 | 0.00 | 0.00 | 0.00 | 56 | 1018.4 |
| 20260504014337 | 62 | 45 | 0.9 | 0.9 | 0.00 | 0.00 | 0.00 | 55 | 1018.4 |
| 20260504013835 | 63 | 46 | 0.0 | 0.0 | 0.00 | 0.00 | 0.00 | 54 | 1018.0 |
| 20260504013333 | 64 | 48 | 0.9 | 0.9 | 0.00 | 0.00 | 0.00 | 53 | 1018.0 |
| 20260504012830 | 64 | 41 | 0.9 | 0.9 | 0.00 | 0.00 | 0.00 | 49 | 1018.1 |
| 20260504012327 | 63 | 47 | 0.9 | 0.9 | 0.00 | 0.00 | 0.00 | 53 | 1017.8 |
| 20260504011825 | 62 | 34 | 0.9 | 1.7 | 0.00 | 0.00 | 0.00 | 52 | 1017.7 |
| 20260504011321 | 62 | 73 | 0.9 | 0.9 | 0.00 | 0.00 | 0.00 | 57 | 1018.0 |
| 20260504010817 | 63 | 52 | 0.0 | 0.9 | 0.00 | 0.00 | 0.00 | 54 | 1017.6 |
| 20260504010313 | 63 | 35 | 0.0 | 0.9 | 0.00 | 0.00 | 0.00 | 52 | 1018.1 |
| 20260504005809 | 63 | 48 | 0.0 | 0.9 | 0.00 | 0.00 | 0.00 | 54 | 1018.1 |
| 20260504005306 | 63 | 44 | 0.0 | 0.9 | 0.00 | 0.00 | 0.00 | 54 | 1018.0 |
| 20260504004804 | 63 | 40 | 0.0 | 0.9 | 0.00 | 0.00 | 0.00 | 57 | 1017.8 |
| 20260504004301 | 63 | 47 | 0.9 | 0.9 | 0.00 | 0.00 | 0.00 | 53 | 1017.4 |
| 20260504003757 | 62 | 64 | 0.9 | 0.9 | 0.00 | 0.00 | 0.00 | 56 | 1017.6 |
| 20260504003255 | 63 | 69 | 0.9 | 0.9 | 0.00 | 0.00 | 0.00 | 58 | 1017.6 |
| 20260504002751 | 64 | 71 | 0.9 | 0.9 | 0.00 | 0.00 | 0.00 | 57 | 1017.5 |
| 20260504002248 | 66 | 66 | 0.9 | 0.9 | 0.00 | 0.00 | 0.00 | 52 | 1017.5 |
| 20260504001746 | 66 | 44 | 0.9 | 0.9 | 0.00 | 0.00 | 0.00 | 50 | 1017.2 |
| 20260504001243 | 68 | 34 | 0.9 | 0.9 | 0.00 | 0.00 | 0.00 | 49 | 1017.0 |
| 20260504000739 | 68 | 33 | 0.0 | 0.9 | 0.00 | 0.00 | 0.00 | 50 | 1017.3 |
| 20260504000236 | 69 | 26 | 0.0 | 0.9 | 0.00 | 0.00 | 0.00 | 50 | 1017.2 |
| 20260503235735 | 70 | 9 | 0.9 | 0.9 | 0.00 | 0.00 | 0.00 | 42 | 1016.9 |
| 20260503235231 | 70 | 16 | 0.9 | 0.9 | 0.00 | 0.00 | 0.00 | 41 | 1017.2 |
| 20260503234729 | 71 | 339 | 1.7 | 1.7 | 0.00 | 0.00 | 0.00 | 41 | 1017.1 |
| 20260503234227 | 71 | 10 | 0.9 | 1.7 | 0.00 | 0.00 | 0.00 | 39 | 1016.9 |
| 20260503233724 | 72 | 299 | 3.5 | 4.3 | 0.00 | 0.00 | 0.00 | 35 | 1017.1 |
| 20260503233219 | 72 | 15 | 3.5 | 4.3 | 0.00 | 0.00 | 0.00 | 37 | 1016.9 |
| 20260503232717 | 73 | 318 | 3.5 | 4.3 | 0.00 | 0.00 | 0.00 | 37 | 1017.0 |
| 20260503232214 | 73 | 346 | 3.5 | 4.3 | 0.00 | 0.00 | 0.00 | 36 | 1017.2 |
| 20260503231712 | 73 | 317 | 3.5 | 4.3 | 0.00 | 0.00 | 0.00 | 35 | 1017.3 |
| 20260503231208 | 73 | 357 | 2.6 | 4.3 | 0.00 | 0.00 | 0.00 | 35 | 1017.2 |
| 20260503230705 | 73 | 316 | 5.2 | 6.1 | 0.00 | 0.00 | 0.00 | 35 | 1017.4 |
| 20260503230202 | 73 | 340 | 2.6 | 2.6 | 0.00 | 0.00 | 0.00 | 35 | 1017.3 |
| 20260503225659 | 74 | 309 | 5.2 | 6.1 | 0.00 | 0.00 | 0.00 | 33 | 1017.3 |
| 20260503225159 | 73 | 20 | 2.6 | 2.6 | 0.00 | 0.00 | 0.00 | 35 | 1017.2 |
| 20260503224657 | 74 | 324 | 1.7 | 1.7 | 0.00 | 0.00 | 0.00 | 33 | 1017.3 |
| 20260503224155 | 74 | 2 | 2.6 | 2.6 | 0.00 | 0.00 | 0.00 | 32 | 1017.2 |
| 20260503223652 | 74 | 20 | 2.6 | 4.3 | 0.00 | 0.00 | 0.00 | 35 | 1017.1 |
| 20260503223149 | 74 | 307 | 7.0 | 7.8 | 0.00 | 0.00 | 0.00 | 34 | 1017.1 |
| 20260503222646 | 74 | 336 | 1.7 | 1.7 | 0.00 | 0.00 | 0.00 | 32 | 1017.0 |
| 20260503222143 | 74 | 317 | 6.1 | 7.0 | 0.00 | 0.00 | 0.00 | 33 | 1017.1 |
| 20260503221642 | 74 | 311 | 4.3 | 5.2 | 0.00 | 0.00 | 0.00 | 33 | 1017.0 |
| 20260503221139 | 75 | 333 | 6.1 | 7.0 | 0.00 | 0.00 | 0.00 | 34 | 1017.0 |
| 20260503220635 | 74 | 19 | 4.3 | 5.2 | 0.00 | 0.00 | 0.00 | 33 | 1017.0 |
| 20260503220132 | 74 | 17 | 4.3 | 6.1 | 0.00 | 0.00 | 0.00 | 33 | 1016.9 |
| 20260503215630 | 74 | 346 | 2.6 | 4.3 | 0.00 | 0.00 | 0.00 | 32 | 1017.2 |
| 20260503215126 | 74 | 340 | 2.6 | 2.6 | 0.00 | 0.00 | 0.00 | 34 | 1017.1 |
| 20260503214625 | 74 | 303 | 3.5 | 4.3 | 0.00 | 0.00 | 0.00 | 33 | 1017.3 |
| 20260503214120 | 75 | 312 | 7.0 | 8.7 | 0.00 | 0.00 | 0.00 | 33 | 1017.3 |
| 20260503213620 | 75 | 329 | 4.3 | 5.2 | 0.00 | 0.00 | 0.00 | 34 | 1017.3 |
| 20260503213116 | 75 | 296 | 5.2 | 6.1 | 0.00 | 0.00 | 0.00 | 33 | 1017.5 |
| 20260503212613 | 75 | 342 | 4.3 | 6.1 | 0.00 | 0.00 | 0.00 | 34 | 1017.5 |
| 20260503212111 | 75 | 359 | 3.5 | 5.2 | 0.00 | 0.00 | 0.00 | 32 | 1017.6 |
| 20260503211608 | 75 | 332 | 3.5 | 4.3 | 0.00 | 0.00 | 0.00 | 33 | 1017.5 |
| 20260503211103 | 75 | 341 | 3.5 | 4.3 | 0.00 | 0.00 | 0.00 | 32 | 1017.6 |
| 20260503210600 | 75 | 319 | 5.2 | 7.0 | 0.00 | 0.00 | 0.00 | 33 | 1017.8 |
| 20260503210055 | 75 | 50 | 4.3 | 7.0 | 0.00 | 0.00 | 0.00 | 34 | 1017.7 |
| 20260503205552 | 75 | 298 | 7.0 | 8.7 | 0.00 | 0.00 | 0.00 | 35 | 1017.6 |
| 20260503205049 | 75 | 323 | 4.3 | 6.1 | 0.00 | 0.00 | 0.00 | 33 | 1017.8 |
| 20260503204546 | 75 | 347 | 2.6 | 4.3 | 0.00 | 0.00 | 0.00 | 36 | 1018.2 |
| 20260503204043 | 75 | 357 | 5.2 | 6.1 | 0.00 | 0.00 | 0.00 | 36 | 1017.8 |
| 20260503203540 | 74 | 13 | 1.7 | 1.7 | 0.00 | 0.00 | 0.00 | 33 | 1017.8 |
| 20260503203037 | 74 | 309 | 4.3 | 5.2 | 0.00 | 0.00 | 0.00 | 33 | 1018.2 |
| 20260503202535 | 75 | 328 | 3.5 | 6.1 | 0.00 | 0.00 | 0.00 | 32 | 1018.4 |
| 20260503202033 | 75 | 45 | 1.7 | 1.7 | 0.00 | 0.00 | 0.00 | 35 | 1018.4 |
| 20260503201531 | 75 | 316 | 5.2 | 6.1 | 0.00 | 0.00 | 0.00 | 33 | 1018.5 |
| 20260503201028 | 74 | 36 | 7.0 | 7.0 | 0.00 | 0.00 | 0.00 | 29 | 1018.8 |
| 20260503200524 | 74 | 308 | 5.2 | 6.1 | 0.00 | 0.00 | 0.00 | 34 | 1018.9 |
| 20260503200021 | 74 | 342 | 7.0 | 7.8 | 0.00 | 0.00 | 0.00 | 34 | 1018.9 |
| 20260503195518 | 74 | 273 | 2.6 | 4.3 | 0.00 | 0.00 | 0.00 | 35 | 1019.1 |
| 20260503195015 | 74 | 73 | 2.6 | 2.6 | 0.00 | 0.00 | 0.00 | 34 | 1019.0 |
| 20260503194512 | 74 | 321 | 3.5 | 5.2 | 0.00 | 0.00 | 0.00 | 32 | 1019.1 |
| 20260503194011 | 75 | 22 | 2.6 | 4.3 | 0.00 | 0.00 | 0.00 | 29 | 1019.4 |
| 20260503193508 | 75 | 14 | 3.5 | 4.3 | 0.00 | 0.00 | 0.00 | 32 | 1019.3 |
| 20260503193004 | 74 | 14 | 9.6 | 13.9 | 0.00 | 0.00 | 0.00 | 32 | 1019.4 |
| 20260503192500 | 75 | 307 | 7.8 | 8.7 | 0.00 | 0.00 | 0.00 | 35 | 1019.6 |
| 20260503191955 | 75 | 306 | 3.5 | 4.3 | 0.00 | 0.00 | 0.00 | 32 | 1019.4 |
| 20260503191453 | 74 | 331 | 2.6 | 2.6 | 0.00 | 0.00 | 0.00 | 35 | 1019.4 |
| 20260503190949 | 73 | 60 | 3.5 | 6.1 | 0.00 | 0.00 | 0.00 | 36 | 1019.7 |
| 20260503190447 | 75 | 358 | 5.2 | 7.0 | 0.00 | 0.00 | 0.00 | 32 | 1019.8 |
| 20260503185944 | 73 | 323 | 9.6 | 12.2 | 0.00 | 0.00 | 0.00 | 31 | 1019.8 |
| 20260503185440 | 73 | 299 | 7.8 | 8.7 | 0.00 | 0.00 | 0.00 | 33 | 1019.9 |
| 20260503184940 | 74 | 346 | 7.8 | 9.6 | 0.00 | 0.00 | 0.00 | 33 | 1020.0 |
| 20260503184436 | 74 | 27 | 2.6 | 2.6 | 0.00 | 0.00 | 0.00 | 34 | 1019.9 |
| 20260503183933 | 73 | 333 | 5.2 | 6.1 | 0.00 | 0.00 | 0.00 | 32 | 1020.0 |
| 20260503183429 | 73 | 342 | 3.5 | 4.3 | 0.00 | 0.00 | 0.00 | 34 | 1020.2 |
| 20260503182926 | 73 | 337 | 3.5 | 4.3 | 0.00 | 0.00 | 0.00 | 39 | 1020.0 |
| 20260503182425 | 73 | 14 | 4.3 | 5.2 | 0.00 | 0.00 | 0.00 | 36 | 1020.0 |
| 20260503181922 | 73 | 341 | 3.5 | 5.2 | 0.00 | 0.00 | 0.00 | 34 | 1019.8 |
| 20260503181419 | 74 | 19 | 4.3 | 5.2 | 0.00 | 0.00 | 0.00 | 33 | 1020.1 |
| 20260503180915 | 73 | 15 | 6.1 | 7.0 | 0.00 | 0.00 | 0.00 | 34 | 1020.3 |
| 20260503180414 | 73 | 2 | 5.2 | 7.8 | 0.00 | 0.00 | 0.00 | 33 | 1020.1 |
| 20260503175909 | 73 | 309 | 7.0 | 7.8 | 0.00 | 0.00 | 0.00 | 35 | 1020.1 |
| 20260503175408 | 73 | 287 | 3.5 | 4.3 | 0.00 | 0.00 | 0.00 | 35 | 1020.2 |
| 20260503174903 | 73 | 41 | 5.2 | 6.1 | 0.00 | 0.00 | 0.00 | 37 | 1020.1 |
| 20260503174402 | 72 | 36 | 4.3 | 5.2 | 0.00 | 0.00 | 0.00 | 38 | 1020.6 |
| 20260503173856 | 72 | 290 | 4.3 | 5.2 | 0.00 | 0.00 | 0.00 | 35 | 1020.4 |
| 20260503173353 | 73 | 285 | 7.8 | 9.6 | 0.00 | 0.00 | 0.00 | 39 | 1020.5 |
| 20260503172850 | 73 | 3 | 7.8 | 11.3 | 0.00 | 0.00 | 0.00 | 37 | 1020.6 |
| 20260503172348 | 72 | 4 | 4.3 | 6.1 | 0.00 | 0.00 | 0.00 | 37 | 1020.6 |
| 20260503171843 | 72 | 4 | 1.7 | 1.7 | 0.00 | 0.00 | 0.00 | 37 | 1020.6 |
| 20260503171340 | 71 | 284 | 6.1 | 7.0 | 0.00 | 0.00 | 0.00 | 35 | 1020.7 |
| 20260503170838 | 72 | 269 | 5.2 | 7.0 | 0.00 | 0.00 | 0.00 | 39 | 1021.1 |
| 20260503170334 | 71 | 3 | 4.3 | 6.1 | 0.00 | 0.00 | 0.00 | 35 | 1021.1 |
| 20260503150726 | 68 | 276 | 2.6 | 4.3 | 0.00 | 0.00 | 0.00 | 44 | 1021.4 |
| 20260503150223 | 68 | 4 | 2.6 | 2.6 | 0.00 | 0.00 | 0.00 | 42 | 1021.4 |
| 20260503140147 | 62 | 128 | 1.7 | 2.6 | 0.00 | 0.00 | 0.00 | 63 | 1020.9 |